sat.trackr.live / text

‹ back to catalog

STARLINK-11491 [DTC]

NORAD 62269 · 2024-237C

PAYLOAD ACTIVE UNKNOWN

§ Identity

Operator
Country
US
Launch date
2024-12-08
Launch site
AFETR
Launch vehicle
Mass (kg)
RCS (m²)

Purposes: comms

External: N2YO · Heavens-Above · Gunter

§ Orbital elements

Epoch: 2026-05-25T04:13:20.878176Z

Period
91.67 min
Inclination
42.9994°
Eccentricity
0.0001392
Mean motion
15.70863969 rev/d
Perigee alt
355.5 km
Apogee alt
357.4 km
Semi-major
6,734.6 km
B*
1.3820e-3
RAAN
315.3923°
Arg perigee
289.1437°
Mean anomaly
70.9280°
Rev number
8,508

§ Raw data

STARLINK-11491 [DTC]1 62269U 24237C   26145.17593609  .00180980  00000+0  13820-2 0  99922 62269  42.9994 315.3923 0001392 289.1437  70.9280 15.70863969 85080

JSON: /api/v1/satellites/62269 · /tle

For live sub-satellite position, see the globe view (requires WebGL).

§ Visibility from observer

Set your observer location to see the next 7 days of passes ≥ 10°. The values pass through the URL so the page stays shareable.

No JS? Fill the form by hand. The geolocation button needs JavaScript.